GW7346 Weather Reports


time (UTC)temp
F
wind
direction
speed
knots
gust
knots
rain 1hr
in
rain 24hr
in
rain mn
in
humidity
%
barometer
mb
20260507085503 54 33 0.0 3.5 0.01 0.25 0.06 87 1011.8
20260507085003 54 340 0.9 3.5 0.01 0.25 0.06 87 1011.8
20260507084506 54 65 0.9 7.0 0.01 0.25 0.06 87 1011.8
20260507084004 54 342 1.7 7.0 0.01 0.25 0.06 87 1011.9
20260507083504 54 122 0.0 6.1 0.01 0.25 0.06 87 1011.9
20260507083012 54 74 2.6 6.1 0.01 0.25 0.06 88 1011.8
20260507082503 55 346 1.7 5.2 0.01 0.25 0.06 89 1011.6
20260507082008 55 328 0.9 4.3 0.01 0.25 0.06 89 1011.6
20260507081508 55 22 1.7 4.3 0.01 0.25 0.06 89 1011.4
20260507081008 55 334 0.9 4.3 0.01 0.25 0.06 89 1011.4
20260507080505 55 22 1.7 4.3 0.01 0.25 0.06 89 1011.4
20260507080023 55 343 1.7 7.0 0.01 0.25 0.06 88 1011.4
20260507075510 55 346 1.7 7.8 0.00 0.24 0.05 88 1011.3
20260507075014 55 360 4.3 7.8 0.00 0.24 0.05 88 1011.3
20260507074528 55 352 3.5 11.3 0.00 0.24 0.05 88 1011.0
20260507074003 55 312 3.5 11.3 0.00 0.24 0.05 88 1011.0
20260507073504 55 275 2.6 9.6 0.00 0.24 0.05 88 1011.0
20260507073012 56 337 3.5 9.6 0.00 0.24 0.05 88 1011.2
20260507072503 56 331 3.5 8.7 0.00 0.24 0.05 88 1011.2
20260507072006 56 348 3.5 10.4 0.00 0.24 0.05 88 1011.1
20260507071518 56 360 2.6 10.4 0.00 0.24 0.05 88 1010.7
20260507071005 56 5 5.2 10.4 0.00 0.24 0.05 88 1010.6
20260507070507 56 352 4.3 13.9 0.01 0.24 0.05 89 1010.5
20260507070028 56 336 6.1 13.9 0.01 0.24 0.05 91 1010.6
20260507065504 57 333 6.1 12.2 0.01 0.24 0.05 92 1010.8
20260507065007 57 24 4.3 9.6 0.01 0.24 0.05 93 1010.8
20260507064518 57 338 4.3 7.8 0.01 0.24 0.05 93 1010.8
20260507064006 57 319 1.7 7.8 0.01 0.24 0.05 93 1010.9
20260507063507 57 336 0.9 7.8 0.01 0.24 0.05 92 1010.7
20260507063024 57 352 2.6 7.8 0.01 0.24 0.05 92 1010.5
20260507062504 57 46 2.6 7.0 0.02 0.24 0.05 92 1010.4
20260507062003 57 346 2.6 7.0 0.03 0.24 0.05 92 1010.4
20260507061513 57 333 2.6 5.2 0.05 0.24 0.05 92 1010.6
20260507061002 57 5 2.6 7.0 0.05 0.24 0.05 92 1010.9
20260507060503 57 321 1.7 7.0 0.04 0.23 0.04 92 1010.9
20260507060018 57 319 0.0 7.8 0.04 0.23 0.04 91 1010.7
20260507055507 57 350 4.3 7.8 0.04 0.23 0.04 91 1011.0
20260507055006 57 339 1.7 7.8 0.04 0.23 0.04 91 1010.9
20260507054531 57 293 4.3 7.8 0.04 0.23 0.04 90 1010.9
20260507054011 58 5 4.3 8.7 0.04 0.23 0.04 90 1011.0
20260507053505 58 347 4.3 8.7 0.04 0.23 0.04 89 1010.9
20260507053014 58 342 2.6 11.3 0.04 0.23 0.04 88 1010.8
20260507052506 59 304 5.2 13.9 0.03 0.22 0.03 86 1011.3
20260507052009 60 348 5.2 13.9 0.02 0.21 0.02 83 1010.9
20260507051524 61 349 7.0 13.0 0.00 0.19 0.00 81 1011.3
20260507051005 61 346 2.6 10.4 0.00 0.19 0.00 80 1011.2
20260507050504 61 352 5.2 11.3 0.00 0.19 0.00 78 1011.1
20260507050021 62 340 5.2 13.9 0.00 0.19 0.00 77 1011.3
20260507045506 62 322 7.8 13.9 0.00 0.19 0.00 76 1010.9
20260507045006 62 327 7.0 12.2 0.00 0.19 0.00 77 1010.9
20260507044518 63 348 4.3 13.0 0.00 0.19 0.00 78 1010.8
20260507044008 63 349 5.2 13.0 0.00 0.19 0.00 78 1011.0
20260507043011 63 315 1.7 10.4 0.00 0.19 0.00 80 1010.7
20260507042504 63 288 3.5 9.6 0.00 0.19 0.00 80 1010.9
20260507042004 63 275 1.7 6.1 0.00 0.19 0.00 81 1010.6
20260507041508 63 352 1.7 6.1 0.00 0.19 0.00 80 1010.5
20260507040507 64 309 0.9 4.3 0.00 0.19 0.00 80 1010.2
20260507040002 64 288 0.9 4.3 0.00 0.19 0.00 80 1010.0
20260507035503 64 325 0.9 5.2 0.00 0.19 0.19 79 1009.8
20260507035003 64 327 0.9 7.8 0.00 0.19 0.19 79 1010.1
20260507034507 64 305 1.7 7.8 0.00 0.19 0.19 78 1010.3
20260507034002 64 345 3.5 7.8 0.00 0.19 0.19 78 1010.6
20260507033505 64 300 3.5 7.8 0.00 0.19 0.19 78 1010.6
20260507033003 64 331 2.6 7.8 0.00 0.19 0.19 78 1010.4
20260507032504 65 335 1.7 7.0 0.00 0.19 0.19 78 1010.2
20260507032002 65 319 3.5 7.0 0.00 0.19 0.19 78 1010.1
20260507031502 65 335 2.6 8.7 0.00 0.19 0.19 77 1010.1
20260507031004 66 302 3.5 8.7 0.00 0.19 0.19 77 1010.1
20260507030504 66 360 3.5 8.7 0.00 0.19 0.19 77 1010.1
20260507030010 66 229 3.5 8.7 0.00 0.19 0.19 77 1010.1
20260507025504 67 352 4.3 8.7 0.00 0.19 0.19 77 1010.0
20260507025004 67 301 4.3 7.8 0.00 0.19 0.19 80 1010.1
20260507024516 67 315 3.5 7.8 0.00 0.19 0.19 80 1010.0
20260507024011 67 329 2.6 9.6 0.00 0.19 0.19 81 1009.8
20260507023503 67 346 5.2 9.6 0.00 0.19 0.19 82 1009.6
20260507023007 67 286 2.6 7.8 0.00 0.19 0.19 83 1009.6
20260507022503 67 263 0.9 7.8 0.00 0.19 0.19 83 1009.7
20260507022003 67 316 2.6 7.8 0.00 0.19 0.19 84 1009.4
20260507021503 67 323 0.0 3.5 0.00 0.19 0.19 85 1009.4
20260507021003 67 331 1.7 3.5 0.00 0.19 0.19 85 1009.4
20260507020502 67 330 0.9 3.5 0.00 0.19 0.19 85 1009.4
20260507020006 67 319 0.0 3.5 0.00 0.19 0.19 85 1009.4
20260507015503 67 294 0.9 3.5 0.00 0.19 0.19 85 1009.3
20260507015002 67 342 0.0 1.7 0.00 0.19 0.19 85 1009.3
20260507014508 67 252 0.0 0.0 0.00 0.19 0.19 85 1009.5
20260507014003 67 252 0.0 0.0 0.00 0.19 0.19 84 1009.7
20260507013503 67 252 0.0 0.0 0.00 0.19 0.19 84 1009.6
20260507013038 67 252 0.0 0.0 0.00 0.19 0.19 84 1009.7
20260507012506 67 252 0.0 0.0 0.00 0.19 0.19 83 1009.6
20260507012009 67 252 0.0 0.0 0.00 0.19 0.19 83 1009.6
20260507011514 67 252 0.0 0.0 0.00 0.19 0.19 83 1009.8
20260507011003 67 252 0.0 0.0 0.00 0.19 0.19 83 1009.7
20260507010503 67 252 0.0 1.7 0.00 0.19 0.19 83 1009.7
20260507010010 67 252 0.0 1.7 0.00 0.19 0.19 82 1009.6
20260507005504 67 266 0.0 1.7 0.00 0.19 0.19 82 1009.5
20260507005001 68 266 0.0 3.5 0.00 0.19 0.19 82 1009.6
20260507004510 68 221 0.9 3.5 0.00 0.19 0.19 82 1009.5
20260507004006 68 209 0.0 1.7 0.00 0.19 0.19 82 1009.3
20260507003503 68 213 0.0 3.5 0.00 0.19 0.19 82 1009.1
20260507003006 68 184 0.0 3.5 0.00 0.19 0.19 82 1009.4
20260507002510 68 173 0.0 3.5 0.00 0.19 0.19 81 1009.2
20260507002004 68 178 0.0 3.5 0.00 0.19 0.19 81 1009.0
20260507001515 68 196 0.0 3.5 0.00 0.19 0.19 81 1009.2
20260507001007 68 159 0.9 4.3 0.00 0.19 0.19 80 1009.2
20260507000507 68 161 0.9 4.3 0.00 0.19 0.19 81 1009.2
20260507000022 68 207 0.9 3.5 0.00 0.19 0.19 80 1009.2
20260506235503 69 141 0.0 3.5 0.00 0.19 0.19 80 1009.0
20260506235003 69 213 0.0 4.3 0.00 0.19 0.19 79 1009.3
20260506234505 69 162 0.9 4.3 0.00 0.19 0.19 79 1009.1
20260506234006 69 237 0.9 4.3 0.00 0.19 0.19 79 1009.0
20260506233505 69 187 0.0 5.2 0.00 0.19 0.19 79 1009.0
20260506233012 69 209 0.9 5.2 0.00 0.19 0.19 79 1009.0
20260506232502 69 178 1.7 5.2 0.00 0.19 0.19 78 1008.7
20260506232009 69 198 0.9 6.1 0.00 0.19 0.19 78 1008.8
20260506231504 69 178 2.6 6.1 0.00 0.19 0.19 78 1008.7
20260506231004 70 260 0.9 5.2 0.00 0.19 0.19 78 1008.9
20260506230507 70 209 2.6 5.2 0.00 0.19 0.19 78 1008.8
20260506230014 70 215 1.7 5.2 0.00 0.19 0.19 79 1008.8
20260506225507 70 194 2.6 5.2 0.00 0.19 0.19 78 1008.6
20260506225008 70 194 1.7 5.2 0.00 0.19 0.19 78 1008.7
20260506224525 70 229 1.7 7.0 0.00 0.19 0.19 78 1008.7
20260506224003 70 200 0.9 7.0 0.00 0.19 0.19 77 1008.7
20260506223503 70 212 2.6 5.2 0.00 0.19 0.19 77 1008.7
20260506223007 70 25 0.0 7.8 0.00 0.19 0.19 77 1008.7
20260506222504 70 195 0.0 7.8 0.00 0.19 0.19 76 1008.8
20260506222006 70 223 3.5 7.0 0.00 0.19 0.19 76 1008.8
20260506221514 70 149 0.0 7.0 0.00 0.19 0.19 76 1008.8
20260506221006 70 216 0.9 7.8 0.00 0.19 0.19 76 1008.8
20260506220509 70 215 1.7 7.8 0.00 0.19 0.19 76 1008.8
20260506220020 71 246 3.5 7.0 0.00 0.19 0.19 76 1008.8
20260506215507 71 213 0.9 7.0 0.00 0.19 0.19 75 1008.8
20260506215003 71 166 0.9 7.0 0.00 0.19 0.19 75 1008.7
20260506214519 71 202 2.6 7.8 0.00 0.19 0.19 75 1008.8
20260506214006 71 227 1.7 7.8 0.00 0.19 0.19 75 1008.5
20260506213508 71 192 1.7 7.0 0.00 0.19 0.19 75 1008.4
20260506213024 71 252 0.9 7.0 0.00 0.19 0.19 75 1008.4
20260506212505 71 174 0.9 7.0 0.00 0.19 0.19 75 1008.3
20260506212004 71 198 0.9 8.7 0.00 0.19 0.19 75 1008.2
20260506211511 71 256 3.5 8.7 0.00 0.19 0.19 74 1008.3
20260506211006 71 17 3.5 8.7 0.00 0.19 0.19 74 1008.4
20260506210503 71 229 3.5 9.6 0.00 0.19 0.19 74 1008.3
20260506210019 71 236 3.5 9.6 0.00 0.19 0.19 73 1008.2
20260506205509 71 274 3.5 9.6 0.00 0.19 0.19 73 1008.0
20260506205007 72 255 4.3 9.6 0.00 0.19 0.19 73 1008.0
20260506204520 72 217 4.3 9.6 0.00 0.19 0.19 73 1008.0
20260506204006 72 214 1.7 7.8 0.00 0.19 0.19 73 1008.1
20260506203507 72 267 2.6 8.7 0.00 0.19 0.19 73 1008.1
20260506203008 72 129 2.6 11.3 0.00 0.19 0.19 72 1008.1
20260506202505 72 31 2.6 11.3 0.00 0.19 0.19 73 1008.0
20260506202006 72 240 3.5 10.4 0.00 0.19 0.19 72 1007.9
20260506201509 72 164 2.6 9.6 0.00 0.19 0.19 71 1008.1
20260506201003 73 258 4.3 9.6 0.00 0.19 0.19 70 1007.9
20260506200504 73 161 4.3 9.6 0.00 0.19 0.19 71 1008.1
20260506200013 73 119 1.7 7.8 0.00 0.19 0.19 72 1007.9
20260506195504 72 123 1.7 10.4 0.00 0.19 0.19 72 1007.9
20260506195004 72 196 3.5 13.0 0.00 0.19 0.19 73 1008.0
20260506194515 72 192 3.5 13.0 0.00 0.19 0.19 72 1008.1
20260506194007 72 213 2.6 11.3 0.00 0.19 0.19 73 1008.2
20260506193506 72 166 3.5 11.3 0.00 0.19 0.19 72 1008.1
20260506193022 72 165 5.2 10.4 0.00 0.19 0.19 71 1008.2
20260506192511 72 248 5.2 10.4 0.00 0.19 0.19 73 1008.1
20260506192009 72 146 2.6 11.3 0.00 0.19 0.19 73 1008.3
20260506191526 71 266 3.5 11.3 0.00 0.19 0.19 74 1008.4
20260506191006 71 182 2.6 7.8 0.00 0.19 0.19 75 1008.5
20260506190504 70 214 2.6 8.7 0.00 0.19 0.19 76 1008.5
20260506190015 70 182 2.6 10.4 0.00 0.19 0.19 76 1008.5
20260506185507 70 221 4.3 14.8 0.00 0.19 0.19 76 1008.6
20260506185006 70 196 5.2 14.8 0.00 0.19 0.19 75 1008.7
20260506184536 70 169 6.1 13.0 0.00 0.19 0.19 76 1008.8
20260506184010 70 217 5.2 13.0 0.00 0.19 0.19 76 1008.8
20260506183506 70 166 5.2 12.2 0.00 0.19 0.19 76 1008.7
20260506183022 69 205 2.6 7.8 0.00 0.19 0.19 77 1008.8
20260506182505 69 202 1.7 14.8 0.00 0.19 0.19 78 1008.9
20260506182010 69 277 6.1 14.8 0.00 0.19 0.19 77 1008.9
20260506181531 69 178 3.5 11.3 0.00 0.19 0.19 78 1008.9
20260506181015 69 205 2.6 15.6 0.00 0.19 0.19 79 1009.0
20260506180509 68 131 0.9 15.6 0.00 0.19 0.19 80 1009.0
20260506180033 68 164 5.2 13.0 0.00 0.19 0.19 79 1009.2
20260506175510 68 180 3.5 20.0 0.00 0.19 0.19 80 1009.1
20260506175003 67 231 7.0 20.0 0.00 0.19 0.19 80 1009.2
20260506174511 67 256 6.1 15.6 0.00 0.19 0.19 81 1009.1
20260506174003 67 272 4.3 13.9 0.00 0.19 0.19 83 1009.2
20260506173505 67 209 4.3 13.9 0.00 0.19 0.19 82 1009.1
20260506173020 67 236 3.5 10.4 0.00 0.19 0.19 83 1009.1
20260506172506 66 201 4.3 10.4 0.00 0.19 0.19 84 1009.3
20260506172008 66 232 4.3 10.4 0.00 0.19 0.19 84 1009.3
20260506171522 66 205 3.5 10.4 0.00 0.19 0.19 85 1009.5
20260506171004 66 265 1.7 11.3 0.00 0.19 0.19 85 1009.3
20260506170504 65 265 2.6 13.0 0.00 0.19 0.19 86 1009.3
20260506170020 65 179 5.2 13.0 0.00 0.19 0.19 87 1009.4
20260506165509 65 245 5.2 11.3 0.00 0.19 0.19 88 1009.4
20260506165009 65 186 3.5 10.4 0.00 0.19 0.19 89 1009.5
20260506164535 64 157 4.3 10.4 0.00 0.19 0.19 89 1009.4
20260506164011 64 116 3.5 8.7 0.00 0.19 0.19 89 1009.5
20260506163507 64 205 1.7 8.7 0.01 0.19 0.19 90 1009.6
20260506163013 64 294 0.9 14.8 0.01 0.19 0.19 90 1009.5
20260506162506 64 160 4.3 14.8 0.01 0.19 0.19 90 1009.4
20260506162007 64 188 3.5 9.6 0.01 0.19 0.19 91 1009.6
20260506161522 64 195 2.6 13.0 0.01 0.19 0.19 91 1009.4
20260506161006 64 228 4.3 13.0 0.01 0.19 0.19 92 1009.7
20260506160507 63 190 3.5 11.3 0.01 0.19 0.19 92 1009.7
20260506160024 63 286 1.7 9.6 0.02 0.19 0.19 92 1009.9
20260506155511 62 193 1.7 9.6 0.02 0.19 0.19 92 1010.0
20260506155010 62 267 2.6 9.6 0.03 0.19 0.19 92 1009.9
20260506154522 62 118 1.7 9.6 0.05 0.19 0.19 92 1010.0
20260506154008 62 165 3.5 7.8 0.06 0.19 0.19 92 1009.8
20260506153510 62 223 1.7 10.4 0.07 0.18 0.18 92 1009.7
20260506153024 62 118 4.3 10.4 0.08 0.18 0.18 92 1009.6
20260506152509 62 150 2.6 7.8 0.09 0.18 0.18 92 1010.0
20260506152009 62 147 1.7 8.7 0.09 0.18 0.18 92 1010.2
20260506151520 62 201 3.5 8.7 0.10 0.18 0.18 92 1010.3
20260506151006 62 232 2.6 7.8 0.11 0.18 0.18 92 1010.5
20260506150507 62 179 1.7 8.7 0.12 0.18 0.18 92 1010.7
20260506150020 62 218 4.3 8.7 0.12 0.17 0.17 91 1010.7
20260506145506 62 171 3.5 10.4 0.13 0.17 0.17 91 1010.6
20260506145007 62 197 3.5 10.4 0.14 0.16 0.16 91 1010.7
20260506144527 62 150 3.5 7.8 0.12 0.14 0.14 91 1010.7
20260506144013 62 240 2.6 7.8 0.12 0.13 0.13 90 1010.7
20260506143511 62 195 1.7 6.1 0.10 0.11 0.11 90 1010.7
20260506143031 62 198 1.7 11.3 0.10 0.10 0.10 90 1010.6
20260506142507 62 214 2.6 11.3 0.09 0.09 0.09 89 1010.6
20260506142009 62 182 0.9 7.8 0.09 0.09 0.09 89 1010.6
20260506141525 63 191 2.6 7.8 0.08 0.08 0.08 88 1010.7
20260506141014 63 207 0.9 6.1 0.07 0.07 0.07 87 1010.7
20260506140508 63 207 1.7 7.8 0.06 0.06 0.06 87 1010.8
20260506140021 63 207 3.5 7.8 0.05 0.05 0.05 86 1010.8
20260506135507 64 126 1.7 7.8 0.04 0.04 0.04 86 1010.8
20260506135009 64 217 2.6 8.7 0.02 0.02 0.02 84 1010.9
20260506134518 64 147 2.6 8.7 0.02 0.02 0.02 83 1011.0
20260506134017 64 195 5.2 9.6 0.01 0.01 0.01 82 1011.1
20260506133508 65 181 3.5 9.6 0.01 0.01 0.01 80 1011.1
20260506133028 65 192 1.7 9.6 0.00 0.00 0.00 81 1011.0
20260506132511 65 196 2.6 10.4 0.00 0.00 0.00 80 1010.9
20260506132010 65 192 0.9 10.4 0.00 0.00 0.00 79 1010.8
20260506131516 65 114 1.7 8.7 0.00 0.00 0.00 78 1010.7
20260506131007 65 173 2.6 9.6 0.00 0.00 0.00 78 1010.7
20260506130507 66 202 3.5 9.6 0.00 0.00 0.00 79 1010.4
20260506130016 66 213 0.0 8.7 0.00 0.00 0.00 79 1010.4
20260506125507 66 136 3.5 9.6 0.00 0.00 0.00 78 1010.2
20260506125003 66 198 3.5 9.6 0.00 0.00 0.00 78 1010.3
20260506124509 66 188 2.6 7.0 0.00 0.00 0.00 77 1010.4
20260506124006 66 178 1.7 7.0 0.00 0.00 0.00 77 1010.5
20260506123503 66 238 2.6 9.6 0.00 0.00 0.00 76 1010.6
20260506123008 66 234 3.5 9.6 0.00 0.00 0.00 76 1010.7
20260506122505 66 155 1.7 7.8 0.00 0.00 0.00 76 1010.8
20260506122004 66 211 2.6 11.3 0.00 0.00 0.00 76 1010.9
20260506121508 66 191 2.6 11.3 0.00 0.00 0.00 76 1010.9
20260506121004 66 138 3.5 7.8 0.00 0.00 0.00 75 1010.8
20260506120504 66 194 2.6 7.8 0.00 0.00 0.00 74 1010.9
20260506120017 66 163 3.5 8.7 0.00 0.00 0.00 73 1010.8
20260506115506 66 191 2.6 10.4 0.00 0.00 0.00 73 1010.7
20260506115006 66 172 4.3 12.2 0.00 0.00 0.00 73 1010.7
20260506114526 67 145 4.3 12.2 0.00 0.00 0.00 73 1010.6
20260506114007 67 171 5.2 13.9 0.00 0.00 0.00 72 1010.4
20260506113510 67 159 1.7 13.9 0.00 0.00 0.00 73 1010.4
20260506113021 67 223 2.6 14.8 0.00 0.00 0.00 73 1010.2
20260506112504 67 169 6.1 14.8 0.00 0.00 0.00 73 1010.1
20260506112002 66 225 3.5 12.2 0.00 0.00 0.00 74 1010.2
20260506111507 66 182 2.6 8.7 0.00 0.00 0.00 75 1010.2
20260506111004 66 186 2.6 9.6 0.00 0.00 0.00 75 1010.1
20260506110507 65 184 3.5 10.4 0.00 0.00 0.00 75 1010.1
20260506110012 65 196 2.6 10.4 0.00 0.00 0.00 75 1010.1
20260506105506 65 171 1.7 9.6 0.00 0.00 0.00 75 1009.9
20260506105004 65 192 0.9 9.6 0.00 0.00 0.00 75 1010.1
20260506104510 65 143 2.6 7.8 0.00 0.00 0.00 75 1010.1
20260506104006 65 196 2.6 9.6 0.00 0.00 0.00 75 1010.0
20260506103506 65 180 2.6 9.6 0.00 0.00 0.00 75 1009.9
20260506103025 65 160 2.6 8.7 0.00 0.00 0.00 75 1010.0
20260506102511 65 182 1.7 10.4 0.00 0.00 0.00 74 1009.9
20260506102011 65 167 4.3 10.4 0.00 0.00 0.00 75 1010.0
20260506101524 65 176 0.9 10.4 0.00 0.00 0.00 74 1010.0
20260506101002 65 228 5.2 10.4 0.00 0.00 0.00 74 1009.8
20260506100506 65 145 2.6 12.2 0.00 0.00 0.00 74 1009.9
20260506100012 65 196 1.7 12.2 0.00 0.00 0.00 74 1009.9
20260506095504 65 171 2.6 10.4 0.00 0.00 0.00 74 1009.8
20260506095004 65 177 1.7 9.6 0.00 0.00 0.00 74 1010.0
20260506094517 65 142 1.7 10.4 0.00 0.00 0.00 74 1010.0
20260506094006 65 238 3.5 10.4 0.00 0.00 0.00 74 1010.0
20260506093508 66 185 3.5 8.7 0.00 0.00 0.00 74 1010.0
20260506093020 66 184 2.6 9.6 0.00 0.00 0.00 73 1010.0
20260506092504 66 115 2.6 10.4 0.00 0.00 0.00 73 1010.0
20260506092007 66 139 1.7 10.4 0.00 0.00 0.00 73 1010.0
20260506091520 66 195 3.5 8.7 0.00 0.00 0.00 72 1010.0
20260506091008 66 146 2.6 8.7 0.00 0.00 0.00 72 1010.1
20260506090508 67 217 3.5 8.7 0.00 0.00 0.00 72 1010.0
20260506090026 67 174 3.5 11.3 0.00 0.00 0.00 71 1010.0